Weather History for Green Bay, WI

Change the Weather History Date:

Monday, December 10, 2012

  Actual Average Record
Temperature  
Mean Temperature 26 °F 23 °F  
Max Temperature 32 °F 30 °F 51 °F (1911)
Min Temperature 19 °F 16 °F -15 °F (1972)
Degree Days  
Heating Degree Days 39 42  
Month to date heating degree days 285 401  
Since 1 July heating degree days 1918 2141  
Cooling Degree Days 0 0  
Month to date cooling degree days 0 0  
Year to date cooling degree days 786 398  
Moisture  
Dew Point 23 °F    
Average Humidity 80    
Maximum Humidity 91    
Minimum Humidity 69    
Precipitation  
Precipitation 0.03 in 0.06 in 0.82 in (1971)
Month to date precipitation 0.57 0.58  
Year to date precipitation 29.56 28.59  
Snow  
Snow 0.40 in 0.40 in 3.40 in (1992)
Month to date snowfall 4.1 4.0  
Since 1 July snowfall 5.6 8.2  
Snow Depth 4.00 in    
Sea Level Pressure  
Sea Level Pressure 29.79 in    
Wind  
Wind Speed 7 mph (North)    
Max Wind Speed 18 mph    
Max Gust Speed 22 mph    
Visibility 7 miles    
Events Snow    
T = Trace of Precipitation, MM = Missing Value Source: NWS Daily Summary

Daily Weather History Graph

Daily Weather History Graph

Search for Another Location

Airport:

Trip Planner

Search our weather history database for the weather conditions in past years. The results will help you decide how hot, cold, wet, or windy it might be!

Date:

Astronomy

Dec. 10, 2012 Rise Set
Actual Time 7:18 AM CST 4:12 PM CST
Civil Twilight 6:45 AM CST 4:46 PM CST
Nautical Twilight 6:08 AM CST 5:22 PM CST
Astronomical Twilight 5:33 AM CST 5:58 PM CST
Moon 3:57 AM CST (12/10) 2:05 PM CST (12/10)
Length of Visible Light 10h 00m
Length of Day
8h 54m
Waning Crescent, 10% of the Moon is Illuminated
Dec 10
Waning Crescent
Dec 13
New
Dec 19
First Quarter
Dec 28
Full
Jan 4
Last Quarter

Hourly Weather History & Observations

Time (CST) Temp. Windchill Dew Point Humidity Pressure Visibility Wind Dir Wind Speed Gust Speed Precip Events Conditions
12:10 AM 32.0 °F 23.0 °F 28.4 °F 87% 29.71 in 2.0 mi NNE 11.5 mph - 0.00 in Snow Light Snow
12:17 AM 32.0 °F 22.5 °F 28.4 °F 87% 29.71 in 2.0 mi NNE 12.7 mph - 0.00 in Snow Light Snow
12:33 AM 32.0 °F 23.0 °F 28.4 °F 87% 29.71 in 3.0 mi NNE 11.5 mph - 0.00 in Snow Light Snow
12:51 AM 32.0 °F 23.0 °F 28.4 °F 87% 29.70 in 4.0 mi NNE 11.5 mph - N/A Snow Light Snow
12:53 AM 32.0 °F 23.6 °F 28.9 °F 88% 29.73 in 3.0 mi NNE 10.4 mph - 0.00 in Snow Light Snow
12:57 AM 32.0 °F 23.6 °F 28.4 °F 87% 29.70 in 1.8 mi NNE 10.4 mph - 0.00 in Snow Light Snow
1:04 AM 32.0 °F 23.6 °F 28.4 °F 87% 29.71 in 2.0 mi NNE 10.4 mph - 0.00 in Snow Light Snow
1:10 AM 32.0 °F 21.6 °F 28.4 °F 87% 29.70 in 2.5 mi North 15.0 mph - 0.00 in Snow Light Snow
1:18 AM 30.2 °F 18.9 °F 26.6 °F 86% 29.71 in 1.0 mi North 16.1 mph - 0.00 in Snow Light Snow
1:29 AM 28.4 °F 17.0 °F 26.6 °F 93% 29.71 in 1.0 mi North 15.0 mph - 0.01 in Snow Light Snow
1:49 AM 28.4 °F 17.5 °F 24.8 °F 86% 29.70 in 2.0 mi North 13.8 mph - 0.01 in Snow Light Snow
1:53 AM 28.0 °F 17.5 °F 25.0 °F 88% 29.73 in 2.5 mi North 12.7 mph - 0.01 in Snow Light Snow
2:00 AM 28.4 °F 17.0 °F 24.8 °F 86% 29.71 in 3.0 mi North 15.0 mph - 0.00 in Snow Light Snow
2:18 AM 28.4 °F 16.6 °F 24.8 °F 86% 29.71 in 8.0 mi North 16.1 mph - 0.00 in   Overcast
2:53 AM 27.0 °F 15.2 °F 24.1 °F 89% 29.73 in 8.0 mi North 15.0 mph - 0.00 in   Overcast
3:34 AM 26.6 °F 14.7 °F 23.0 °F 86% 29.71 in 5.0 mi North 15.0 mph 19.6 mph 0.00 in Snow Light Snow
3:49 AM 26.6 °F 14.7 °F 23.0 °F 86% 29.72 in 4.0 mi North 15.0 mph - 0.00 in Snow Light Snow
3:53 AM 26.1 °F 15.0 °F 21.9 °F 84% 29.75 in 4.0 mi North 12.7 mph - 0.00 in Snow Light Snow
4:36 AM 26.6 °F 16.2 °F 21.2 °F 80% 29.72 in 2.5 mi North 11.5 mph - 0.00 in Snow Light Snow
4:46 AM 24.8 °F 14.0 °F 21.2 °F 86% 29.72 in 1.5 mi North 11.5 mph - 0.00 in Snow Light Snow
4:53 AM 25.0 °F 13.6 °F 21.9 °F 88% 29.75 in 2.0 mi North 12.7 mph - 0.00 in Snow Light Snow
5:03 AM 24.8 °F 14.6 °F 21.2 °F 86% 29.73 in 4.0 mi North 10.4 mph - 0.00 in Snow Light Snow
5:53 AM 24.1 °F 13.7 °F 19.9 °F 84% 29.76 in 10.0 mi North 10.4 mph - 0.00 in   Overcast
6:53 AM 19.9 °F 10.1 °F 18.0 °F 92% 29.78 in 10.0 mi NW 8.1 mph - N/A   Clear
7:53 AM 19.9 °F 10.1 °F 17.1 °F 89% 29.79 in 10.0 mi NW 8.1 mph - N/A   Clear
8:53 AM 21.9 °F 11.7 °F 18.0 °F 85% 29.82 in 10.0 mi NW 9.2 mph - N/A   Clear
9:53 AM 26.1 °F 16.8 °F 19.9 °F 78% 29.83 in 10.0 mi NNW 9.2 mph - N/A   Clear
10:53 AM 27.0 °F 19.5 °F 21.0 °F 78% 29.82 in 10.0 mi NW 6.9 mph - N/A   Clear
11:53 AM 28.9 °F 21.9 °F 21.9 °F 75% 29.82 in 10.0 mi NW 6.9 mph - N/A   Clear
12:53 PM 30.9 °F 24.3 °F 23.0 °F 72% 29.83 in 10.0 mi NNW 6.9 mph - N/A   Partly Cloudy
1:05 PM 30.2 °F 21.9 °F 21.2 °F 69% 29.80 in 10.0 mi North 9.2 mph - N/A   Mostly Cloudy
1:35 PM 30.2 °F 23.4 °F 21.2 °F 69% 29.80 in 10.0 mi NNW 6.9 mph - N/A   Overcast
1:53 PM 30.9 °F 23.5 °F 23.0 °F 72% 29.83 in 10.0 mi North 8.1 mph - N/A   Overcast
2:15 PM 30.2 °F 21.9 °F 21.2 °F 69% 29.81 in 10.0 mi North 9.2 mph - N/A   Overcast
2:40 PM 30.2 °F 24.3 °F 23.0 °F 75% 29.81 in 10.0 mi North 5.8 mph - N/A   Overcast
2:53 PM 30.0 °F 24.1 °F 21.9 °F 72% 29.85 in 10.0 mi North 5.8 mph - N/A   Overcast
3:53 PM 30.0 °F 24.1 °F 21.9 °F 72% 29.86 in 10.0 mi NNW 5.8 mph - N/A   Overcast
4:53 PM 28.9 °F - 21.9 °F 75% 29.89 in 10.0 mi Calm Calm - N/A   Overcast
5:53 PM 28.0 °F - 23.0 °F 81% 29.91 in 10.0 mi Calm Calm - N/A   Overcast
6:53 PM 28.9 °F - 21.9 °F 75% 29.91 in 10.0 mi Calm Calm - N/A   Overcast
7:53 PM 27.0 °F 23.0 °F 21.0 °F 78% 29.92 in 10.0 mi WNW 3.5 mph - N/A   Overcast
8:53 PM 27.0 °F 23.0 °F 21.0 °F 78% 29.93 in 10.0 mi WSW 3.5 mph - N/A   Overcast
9:53 PM 27.0 °F - 21.9 °F 81% 29.94 in 10.0 mi Calm Calm - N/A   Overcast
10:53 PM 26.1 °F 21.9 °F 21.9 °F 84% 29.93 in 10.0 mi SSE 3.5 mph - N/A   Overcast
11:53 PM 26.1 °F 20.5 °F 21.9 °F 84% 29.93 in 10.0 mi SW 4.6 mph - N/A   Overcast